Location: Navalespino
(40.5894°N, 4.2660°W)
Time: 22:58:13
(UTC+00:00)

Ariane Rocket - Pass Details

Date: 18 April 2024
Orbit: 758 x 766 km, 98.5° (Epoch: 23 May)

Event Time Altitude Azimuth Distance (km) Brightness Sun altitude
Exits shadow 20:56:45 32° 79° (E) 1,293 3.8 -20.7°
Maximum altitude 20:57:13 32° 68° (ENE) 1,278 3.9 -20.8°
Drops below altitude 10° 21:01:39 10° 6° (N) 2,296 5.9 -21.4°
Sets 21:04:09 0° 357° (N) 3,226 6.8 -21.8°
